Location: Unspecified
(33.4390°N, 83.7350°W)
Time: 14:41:53
(UTC-04:00)

Daily predictions for brighter satellites

Satellite Brightness Start Highest point End
(mag) Time Altitude Azimuth Time Altitude Azimuth Time Altitude Azimuth
USA 267 4.4 20:05:58 10° ENE 20:10:49 22° ESE 20:15:37 10° S
YAOGAN 6 3.2 20:08:32 10° SE 20:11:57 36° ENE 20:15:22 10° N
Cosmos 2227 Rocket 3.5 20:09:10 10° N 20:13:26 22° ENE 20:17:42 10° ESE
OE (NEXTSAT) 4.4 20:09:59 10° SW 20:13:30 88° NW 20:17:03 10° NE
Cosmos 1842 3.3 20:14:42 10° N 20:18:32 57° E 20:22:20 10° SSE
Abrixas rocket 3.2 20:16:34 10° NNW 20:19:22 29° NNE 20:21:54 12° E
Cosmos 1605 Rocket 4.2 20:19:09 10° N 20:25:04 47° E 20:31:03 10° SSE
Cosmos 1544 3.9 20:22:34 10° SSE 20:25:46 29° E 20:28:58 10° NNE
Cosmos 1727 Rocket 4.3 20:20:27 10° SSE 20:26:17 43° E 20:32:10 10° NNE
Cosmos 2369 4.1 20:22:20 10° S 20:27:35 41° ESE 20:32:51 10° NE
Cosmos 1025 Rocket 3.7 20:23:50 10° NNW 20:28:08 61° W 20:32:26 10° S
Cosmos 1932 4.4 20:24:28 10° SSW 20:30:38 77° ESE 20:36:50 10° NNE
Shenzhou-11 Module 3.7 20:28:51 10° S 20:30:43 16° SE 20:31:27 15° ESE
Delta 2 Rocket 4.3 20:27:31 10° SSW 20:30:58 27° SSE 20:33:12 16° ESE
Cosmos 1455 Rocket 3.7 20:27:28 10° SSE 20:31:25 32° E 20:35:21 10° NNE
Cosmos 1934 Rocket 4.0 20:26:01 10° N 20:32:15 85° E 20:38:22 10° S
Cosmos 1302 Rocket 4.0 20:27:56 10° NNW 20:33:09 69° ENE 20:38:21 10° SSE
Ariane Rocket 3.4 20:28:11 10° S 20:33:14 69° WSW 20:38:19 10° NNW
Cosmos 1697 Rocket 3.2 20:28:57 10° SSE 20:34:02 36° ESE 20:39:09 10° NE
Cosmos 1346 Rocket 3.2 20:32:02 10° SSE 20:35:53 41° E 20:39:45 10° NNE
Meteor 1-15 Rocket 4.5 20:34:02 10° SSE 20:39:25 46° E 20:44:44 10° NNE
CZ-4 R/B 4.2 20:37:22 10° SSW 20:40:37 22° W 20:43:56 10° NW
Cosmos 921 Rocket 3.5 20:38:25 10° N 20:42:34 39° ENE 20:46:15 13° SE
Lacrosse 5 rocket 4.2 20:40:55 10° W 20:43:32 16° WSW 20:46:13 10° SSW
Cosmos 2278 3.9 20:39:39 10° S 20:45:01 46° ESE 20:50:26 10° NNE
Cosmos 1707 3.5 20:42:08 10° NNE 20:45:35 29° E 20:47:24 20° ESE
Delta 7925 Rocket 4.2 20:41:02 10° WSW 20:46:08 37° S 20:49:04 19° ESE
OAO 3 Rocket 3.2 20:41:50 10° W 20:46:44 77° N 20:49:56 22° E
SL-4 R/B 3.8 20:43:09 10° W 20:47:17 32° NW 20:51:10 10° NNE
Intercosmos 25 Rocket 3.0 20:45:09 10° S 20:48:17 87° W 20:52:15 10° N
ASC 2 Rocket 4.5 20:47:46 10° SW 20:50:59 23° S 20:52:54 17° SE
Cosmos 1892 Rocket 3.6 20:48:47 10° N 20:53:01 52° E 20:57:15 10° SSE
HJ-1C 3.4 20:53:41 10° S 20:57:03 81° WSW 21:00:28 10° NNW
Cosmos 2082 4.4 20:53:03 10° N 20:58:07 33° ENE 21:00:11 26° ESE
Cosmos 2297 Rocket 2.3 20:53:10 10° N 20:58:40 52° ENE 21:02:25 20° SE
CZ-2D R/B 3.6 20:54:56 10° S 20:58:43 65° W 21:02:32 10° NNW
Cosmos 2219 3.4 20:55:07 10° NNW 21:00:43 72° WSW 21:06:17 10° SSE
Delta 168 4.4 20:58:26 10° WSW 21:04:18 35° S 21:06:19 25° SE
USA 186 2.0 21:04:58 46° ESE 21:05:26 50° ENE 21:08:44 10° N
Cosmos 371 Rocket 3.3 21:01:06 10° N 21:05:50 55° ENE 21:08:13 27° SE
Cosmos 1939 Rocket 2.8 21:02:04 10° S 21:06:00 82° WSW 21:10:01 10° NNW
Cosmos 1340 2.5 21:03:14 10° S 21:06:58 67° E 21:10:44 10° NNE
Cosmos 407 Rocket 4.0 21:04:39 10° SSE 21:09:28 36° E 21:14:16 10° NE
Cosmos 1818 3.6 21:05:01 10° SSW 21:10:19 58° ESE 21:15:41 10° NE
SJ-11-01 4.4 21:08:09 28° SE 21:10:21 52° ENE 21:14:53 10° N
Aureole 2 Rocket 3.6 21:07:00 10° SW 21:10:28 44° WNW 21:13:47 10° N
Cosmos 1656 4.3 21:06:48 10° SW 21:12:18 56° WNW 21:17:46 10° NNE
SPOT 3 Rocket 3.7 21:13:56 10° S 21:19:09 77° WSW 21:24:23 10° NNW
Resurs 01 Rocket 3.0 21:22:44 25° NE 21:22:44 25° NE 21:25:12 10° N
Cosmos 2100 Rocket 4.1 21:15:40 10° N 21:21:47 54° E 21:24:52 29° SE
Cosmos 1980 Rocket 2.1 21:21:04 10° S 21:26:34 58° ESE 21:32:08 10° NNE
ATLAS 2A CENTAUR R/B 4.4 21:20:57 10° WSW 21:26:45 60° SSE 21:38:01 29° E
GPS 2-04 Rocket1 3.0 21:23:36 10° W 21:26:38 46° SW 21:26:38 46° SW
Cosmos 1461 2.9 21:24:43 10° SSW 21:29:16 70° ESE 21:29:30 68° E
H-2A R/B 2.8 21:33:39 37° NE 21:33:39 37° NE 21:37:52 10° N
Cosmos 1802 Rocket 4.0 21:28:18 10° N 21:34:18 51° E 21:34:56 49° ESE
Cosmos 2173 Rocket 3.8 21:29:45 10° N 21:35:50 66° E 21:37:50 43° SSE
Cosmos 1000 Rocket 4.4 21:34:12 10° S 21:40:32 89° W 21:46:53 10° N
SJ-6B 3.9 21:42:32 31° SW 21:43:48 42° W 21:47:27 10° NNW
ISS -1.8 21:41:20 10° WSW 21:42:56 26° WSW 21:42:56 26° WSW
Intelsat 5-1 Rocket 4.4 21:22:14 10° W 21:47:18 55° SSW 21:51:01 39° SE
Cosmos 1992 Rocket 4.3 21:45:20 10° NNW 21:50:29 62° WSW 21:51:57 44° SSW
OAO 3 Copernicus 4.3 21:46:31 10° WNW 21:51:20 80° WNW 21:51:20 80° WNW
ARGOS 3.4 21:54:06 54° NNE 21:54:06 54° NNE 21:58:29 10° N
USA 267 3.3 21:48:36 15° NE 21:54:07 79° NW 22:00:39 10° SW
Cosmos 2227 Rocket 3.1 21:52:19 10° NW 21:57:40 45° WSW 22:00:19 27° SSW
Cosmos 1459 Rocket 4.3 22:03:11 10° NNW 22:09:26 64° W 22:11:31 42° SSW
FALCON 9 R/B 3.6 22:17:47 10° W 22:37:41 39° SW 22:38:06 39° SSW
CZ-4C R/B 3.7 22:31:04 10° NNW 22:36:16 40° NNE 22:36:16 40° NNE
Centaur D-1AR AC-40 4.2 22:15:36 10° W 22:42:45 40° SSW 22:43:12 40° SSW
CZ-3 Stage 3 4.4 23:04:43 10° WSW 23:40:50 63° WSW 23:40:50 63° WSW
